Home   Weather   Canada   Clyde River   Past weeks
Flag for Canada

Past Weather in Clyde River, Nunavut, Canada — Yesterday and Last 2 Weeks

Currently: 41 °F. Light rain. Overcast. (Weather station: Clyde, Canada). See more current weather

Past Weather in Clyde River — Graph

°F

Clyde River Temperature Yesterday

Maximum temperature yesterday: 41 °F (at 10:00 am)
Minimum temperature yesterday: 36 °F (at 10:38 pm)
Average temperature yesterday: 39 °F

High & Low Weather Summary for the Past Weeks

 TemperatureHumidityPressure
High64 °F (Jul 15, 6:59 pm)100% (Jul 10, 11:00 pm)30.20 "Hg (Jul 10, 11:00 pm)
Low30 °F (Jul 11, 10:56 pm)37% (Jul 20, 12:00 pm)29.31 "Hg (Jul 23, 6:00 pm)
Average42 °F83%29.71 "Hg
* Reported Jul 10 8:00 am — Jul 25 8:00 am, Clyde River. Weather by CustomWeather, © 2024

Note: Actual official high and low records may vary slightly from our data, if they occured in-between our weather recording intervals... More about our weather records

Clyde River Weather History for the Previous 24 Hours

Scroll right to see more
 ConditionsComfort  
Time TempWeatherWind HumidityBarometerVisibility
8:00 am
Thu, Jul 25
39 °FMore clouds than sun.13 mph81%29.35 "Hg9 mi
7:37 am39 °FMostly cloudy.13 mph81%29.35 "Hg9 mi
7:12 am37 °FLight rain. Overcast.9 mph93%29.36 "Hg9 mi
7:00 am37 °FMostly cloudy.14 mph93%29.36 "Hg9 mi
6:00 am37 °FOvercast.18 mph87%29.36 "Hg9 mi
5:00 am37 °FOvercast.16 mph87%29.36 "Hg9 mi
4:38 am37 °FMostly cloudy.16 mph87%29.37 "Hg9 mi
4:00 am37 °FOvercast.20 mph87%29.37 "Hg9 mi
3:34 am36 °FLight rain. Fog.18 mph93%29.37 "Hg5 mi
3:00 am36 °FLight rain. Mostly cloudy.24 mph93%29.37 "Hg9 mi
2:00 am36 °FLight rain. Overcast.22 mph93%29.37 "Hg9 mi
1:33 am36 °FLight rain. Overcast.20 mph93%29.37 "Hg9 mi
1:00 am36 °FOvercast.21 mph93%29.37 "Hg7 mi
12:42 am36 °FCloudy.16 mph93%29.38 "Hg9 mi
12:36 am36 °FMostly cloudy.17 mph93%29.38 "Hg9 mi
12:00 am36 °FMore clouds than sun.22 mph93%29.37 "Hg9 mi
11:49 pm
Wed, Jul 24
36 °FLow clouds.22 mph93%29.37 "Hg9 mi
11:00 pm37 °FCloudy.26 mph87%29.36 "Hg9 mi
10:50 pm37 °FOvercast.25 mph87%29.36 "Hg9 mi
10:38 pm36 °FLight rain. Fog.25 mph93%29.36 "Hg3 mi
10:00 pm37 °FOvercast.25 mph87%29.37 "Hg9 mi
9:34 pm37 °FMostly cloudy.26 mph87%29.36 "Hg9 mi
9:00 pm39 °FOvercast.20 mph81%29.36 "Hg9 mi
8:00 pm39 °FOvercast.22 mph81%29.36 "Hg9 mi
7:00 pm39 °FBroken clouds.17 mph81%29.36 "Hg15 mi
6:20 pm41 °FBroken clouds.17 mph76%29.36 "Hg15 mi
6:00 pm41 °FSprinkles. Broken clouds.20 mph76%29.36 "Hg15 mi
5:00 pm39 °FBroken clouds.18 mph81%29.36 "Hg15 mi
4:00 pm39 °FSprinkles. Broken clouds.23 mph81%29.35 "Hg15 mi
3:00 pm39 °FSprinkles. Broken clouds.23 mph81%29.35 "Hg15 mi
2:00 pm39 °FSprinkles. Broken clouds.21 mph81%29.35 "Hg15 mi
1:00 pm39 °FSprinkles. Broken clouds.22 mph87%29.35 "Hg15 mi
12:51 pm39 °FSprinkles. More clouds than sun.21 mph87%29.36 "Hg15 mi
12:00 pm39 °FMore clouds than sun.20 mph81%29.36 "Hg15 mi
11:00 am41 °FMore clouds than sun.20 mph81%29.36 "Hg15 mi
10:00 am41 °FDrizzle. Low clouds.14 mph81%29.36 "Hg15 mi
Weather by CustomWeather, © 2024

See weather overview